Location: Austin
(30.3000°N, 97.7500°W)
Time: 11:34:53
(UTC-06:00)

SL-8 R/B - Pass Details

Date: 04 November 2025
Orbit: 647 x 657 km, 48.4° (Epoch: 06 November)

Event Time Altitude Azimuth Distance (km) Brightness Sun altitude
Rises 18:36:13 0° 310° (NW) 2,954 7.6 -12.4°
Reaches altitude 10° 18:38:33 10° 309° (NW) 2,042 6.8 -12.9°
Maximum altitude 18:43:15 80° 223° (SW) 657 3.7 -13.9°
Drops below altitude 10° 18:47:57 10° 137° (SE) 2,035 5.9 -14.9°
Enters shadow 18:48:34 - 136° (SE) 2,277 6.1 -15.0°
